Location: Spring Creek
(38.2870°N, 100.2160°W)
Time: 03:29:01
(UTC+00:00)

COSMOS 2455 - Pass Details

Date: 08 May 2021
Orbit: 902 x 908 km, 67.1° (Epoch: 22 June)

Event Time Altitude Azimuth Distance (km) Brightness Sun altitude
Rises 09:00:00 0° 335° (NNW) 3,540 6.3 -25.2°
Reaches altitude 10° 09:02:35 10° 340° (NNW) 2,596 5.6 -24.9°
Maximum altitude 09:08:31 58° 59° (ENE) 1,053 3.4 -24.2°
Drops below altitude 10° 09:14:25 10° 138° (SE) 2,583 5.1 -23.4°
Sets 09:16:57 0° 142° (SE) 3,520 5.8 -23.1°
